ASTROSAT

Last updated on Mon Sep 21 2026 00:03:33 GMT+0000 (Coordinated Universal Time)

1 40930U 15052A 26263.34598581 .00001301 00000+0 76314-4 0 9990 2 40930 5.9956 190.3107 0008351 311.2541 48.6867 14.82648690593977
UTC large
Height (km)
Speed (km/s)
/
Latitude / Longitude
Inclination (degrees)
Orbital Period (minutes)
Azimuth
Elevation
Range (km)
Doppler Factor

Next 0 passes for location: London (51.5072 / 0.1276)

No passes found over London.
ASTROSAT